Regional Weather Roundup
Issued by NWS

Home | Current Version | Previous Version | Text Only | Print | Product List | Glossary On
Versions: 1 2 3 4 5 6 7 8 9 10 11 12 13 14 15 16 17 18 19 20 21 22 23 24 25 26 27 28 29 30 31 32 33 34 35 36 37 38 39 40 41 42 43 44 45 46 47 48 49 50
000
ASUS44 KFWD 051015
RWRTX
NORTH TEXAS HOURLY WEATHER ROUNDUP
NATIONAL WEATHER SERVICE FORT WORTH TX
500 AM CDT SAT SEP 05 2015

NOTE: "FAIR" INDICATES FEW OR NO CLOUDS BELOW 12,000 FEET WITH NO
SIGNIFICANT WEATHER AND/OR OBSTRUCTIONS TO VISIBILITY.

TXZ118-119-051100-
DALLAS/FORT WORTH METROPLEX

CITY           SKY/WX    TMP DP  RH WIND       PRES   REMARKS
DFW AIRPORT    CLEAR     80  72  76 S7        29.96R
DALLAS LOVE    CLEAR     81  72  74 S9        29.97R
FTW MEACHAM    CLEAR     80  72  76 S8        29.96R
DAL-EXECUTIVE  CLEAR     78  71  79 S6        29.97R
FTW-ALLIANCE   CLEAR     78  71  79 S6        29.96R
FTW-NAS-JRB    CLEAR     80  72  76 S8        29.96S
FTW-SPINKS     CLEAR     77  72  82 S5        29.98R
ARLINGTON      CLEAR     79  71  76 SE6       29.97R
GRAND PRAIRIE  CLEAR     80  73  80 SE3       29.98R
ADDISON        CLEAR     81  74  79 S9        29.99R
MESQUITE       CLEAR     76  71  85 S3        29.98R
LANCASTER      CLEAR     77  69  77 CALM      29.98S
$$

TXZ091>094-102>105-117-120-121-131>134-051100-
NORTH CENTRAL TEXAS

CITY           SKY/WX    TMP DP  RH WIND       PRES   REMARKS
SHRMAN/DENISON CLEAR     79  73  81 SE8       29.99R
GAINESVILLE    CLEAR     76  70  82 CALM      29.99S
BOWIE          CLEAR     73  68  83 SE3       29.98R
BRIDGEPORT     CLEAR     72  69  91 CALM      29.99R
DECATUR        CLEAR     77  68  73 S8        29.98R
DENTON         CLEAR     78  71  79 S6        29.96S
MCKINNEY       CLEAR     78  71  79 S6        29.97S
GREENVILLE     CLEAR     77  70  78 SE5       29.99R
ROCKWALL       CLEAR     77  72  85 S5        29.97R
TERRELL        CLEAR     76  72  87 SE5       29.98S
WAXAHACHIE     CLEAR     76  72  87 CALM      29.99R
CLEBURNE       CLEAR     77  75  94 S7        29.99R
GRANBURY       CLEAR     78  71  77 SE6       29.98R
$$

TXZ083>090-098>101-113>116-127>130-139>142-154-155-051100-
WESTERN NORTH TEXAS

CITY           SKY/WX    TMP DP  RH WIND       PRES   REMARKS
WICHITA FALLS  CLEAR     73  67  81 SE6       29.95R
WF-KICKAPOO    CLEAR     78  68  72 SE7       29.96S
VERNON         CLEAR     79  62  55 SE8       29.96R
ABILENE        CLEAR     77  68  73 S9        29.98R
ABILENE-DYESS  CLEAR     78  68  72 S12       29.96R
BRECKENRIDGE   CLEAR     78  68  71 S7        29.96R
GRAHAM         CLEAR     76  69  79 SE6       29.95S
MINERAL WELLS  CLEAR     75  70  84 SE8       29.95R
STEPHENVILLE   CLEAR     74  69  85 CALM      30.01R
COMANCHE       CLEAR     74  70  86 S5        29.98S
BROWNWOOD      PTCLDY    73  68  83 SE3       29.99R
COLEMAN        MOCLDY    76  69  78 S7        29.99S
BRADY          CLEAR     75  72  88 SE5       29.99S
$$

TXZ143>147-156>162-174-175-051100-
CENTRAL TEXAS

CITY           SKY/WX    TMP DP  RH WIND       PRES   REMARKS
WACO           CLEAR     79  73  82 S12       29.97R
WACO-MCGREGOR  CLEAR     78  73  84 S9        29.98R
HILLSBORO      CLEAR     77  70  79 SE8       29.98R
CORSICANA      CLEAR     77  73  87 S6        29.99R
MEXIA          MOCLDY    74  73  95 E8        29.98R
HEARNE         PTCLDY    75  74  96 CALM      30.00R
CAMERON        PTCLDY    76  75  95 SE3       29.98R
TEMPLE         CLOUDY    77  70  78 S13       29.98S
KILLEEN        PTCLDY    76  72  89 S8        29.98R
KILLEEN-SKYLRK CLOUDY    77  70  78 SE8       29.98R
FORT HOOD      CLOUDY    76  73  90 SE8       29.97R
GATESVILLE     CLEAR     79  72  78 SE3       30.00S
HAMILTON       MOCLDY    76  70  82 S7        30.00R
$$

TXZ095>097-106>112-122>126-135>138-148>153-164>167-051100-
EAST TEXAS

CITY           SKY/WX    TMP DP  RH WIND       PRES   REMARKS
PARIS          CLEAR     75  64  69 S3        29.99R
SULPHUR SPRNGS CLEAR     78  71  79 S3        30.01R
MOUNT PLEASANT CLEAR     73  72  97 CALM      30.00R
GILMER         CLEAR     76  72  88 CALM      29.99R
MINEOLA        CLEAR     75  73  94 CALM      30.00R
TYLER          CLEAR     76  72  87 S7        29.99R
LONGVIEW       CLEAR     76  73  91 S5        29.98R
MARSHALL       CLEAR     76  73  91 CALM      30.01R
ATHENS         MOCLDY    73  72  94 CALM      29.98R
PALESTINE      CLEAR     76  73  93 CALM      30.00R
JACKSONVILLE   CLEAR     76  73  91 S5        30.02S
HENDERSON      CLEAR     73  72  95 CALM      30.00S
CENTER         FAIR      75  73  93 CALM      29.99S
NACOGDOCHES    CLEAR     72  72 100 CALM      30.00R
LUFKIN         CLEAR     73  72  96 CALM      29.99R
$$

SUPPLEMENTAL OBSERVATIONS (CENTRAL)

CITY           SKY/WX    TMP DP  RH WIND       PRES   REMARKS
LAKE TEXOMA      N/A     75  70  83 E3          N/A
CADDO GRASSLND   N/A     75  68  78 S5          N/A
PAT MAYSE LAKE   N/A     79  72  78 SE8         N/A
GREENVILLE       N/A     75  70  83 SE3         N/A
CEDAR HILL       N/A     77  70  78 SE2         N/A
LAKE LIMESTONE   N/A     75  72  88 S2          N/A
MCGREGOR         N/A     79  73  83 S10         N/A
$$

SUPPLEMENTAL OBSERVATIONS (WEST)

CITY           SKY/WX    TMP DP  RH WIND       PRES   REMARKS
MILLERS CREEK    N/A     79  68  69 S10         N/A
LBJ GRASSLAND    N/A     79  70  73 S8          N/A
COMANCHE         N/A     73  66  78 S5          N/A
HAMBY            N/A     77  66  69 S9          N/A
IVIE RESERVOIR   N/A     75  68  78 SE5         N/A
COLORADO BEND    N/A     75  68  78 SW8         N/A
$$

SUPPLEMENTAL OBSERVATIONS (EAST)

CITY           SKY/WX    TMP DP  RH WIND       PRES   REMARKS
LUFKIN           N/A     73  70  88 MISG        N/A
N SABINE NF      N/A     73  70  88 MISG        N/A
$$

SUPPLEMENTAL OBSERVATIONS ARE A COLLECTION OF AUTOMATED INSTRUMENTS
THAT ARE MAINTAINED BY A VARIETY OF FEDERAL AND STATE AGENCIES.
CERTAIN ELEMENTS...SUCH AS HUMIDITY VALUES AND SUSTAINED WIND
SPEEDS...MAY BE APPROXIMATED.




USA.gov is the U.S. government's official web portal to all federal, state and local government web resources and services.